Weather History for Cincinnati, OH

Change the Weather History Date:

Thursday, February 21, 2013

  Actual Average Record
Temperature  
Mean Temperature 26 °F -  
Max Temperature 32 °F 49 °F 71 °F (1997)
Min Temperature 21 °F 28 °F 0 °F (1968)
Degree Days  
Heating Degree Days 38    
Moisture  
Dew Point 18 °F    
Average Humidity 70    
Maximum Humidity 85    
Minimum Humidity 59    
Precipitation  
Precipitation 0.06 in - - ()
Sea Level Pressure  
Sea Level Pressure 30.27 in    
Wind  
Wind Speed 6 mph (NE)    
Max Wind Speed 15 mph    
Max Gust Speed 21 mph    
Visibility 10 miles    
Events Rain , Snow    
Averages and records for this station are not official NWS values.
T = Trace of Precipitation, MM = Missing Value Source: NWS Daily Summary

Daily Weather History Graph

Daily Weather History Graph

Search for Another Location

Airport:

Trip Planner

Search our weather history database for the weather conditions in past years. The results will help you decide how hot, cold, wet, or windy it might be!

Date:

Astronomy

Feb. 21, 2013 Rise Set
Actual Time 7:21 AM EST 6:21 PM EST
Civil Twilight 6:54 AM EST 6:49 PM EST
Nautical Twilight 6:22 AM EST 7:20 PM EST
Astronomical Twilight 5:52 AM EST 7:51 PM EST
Moon 2:37 PM EST 4:23 AM EST
Length of Visible Light 11h 54m
Length of Day
11h 00m
Waxing Gibbous, 83% of the Moon is Illuminated
Feb 21
Waxing Gibbous
Feb 25
Full
Mar 4
Last Quarter
Mar 11
New
Mar 19
First Quarter

Hourly Weather History & Observations

Time (EST) Temp. Windchill Dew Point Humidity Pressure Visibility Wind Dir Wind Speed Gust Speed Precip Events Conditions
12:31 AM 21.2 °F - 14.0 °F 74% 30.32 in 10.0 mi Calm Calm - N/A   Mostly Cloudy
12:53 AM 21.2 °F - 15.8 °F 80% 30.33 in 10.0 mi Calm Calm - N/A   Overcast
1:53 AM 21.9 °F 12.5 °F 14.0 °F 72% 30.36 in 10.0 mi North 8.1 mph - N/A   Overcast
2:53 AM 21.0 °F 16.2 °F 12.0 °F 68% 30.36 in 10.0 mi North 3.5 mph - N/A   Overcast
3:53 AM 21.9 °F 17.2 °F 12.9 °F 68% 30.34 in 10.0 mi North 3.5 mph - N/A   Overcast
4:53 AM 21.9 °F 12.5 °F 12.9 °F 68% 30.35 in 10.0 mi North 8.1 mph - N/A   Overcast
5:53 AM 21.9 °F 14.5 °F 14.0 °F 72% 30.36 in 10.0 mi North 5.8 mph - N/A   Overcast
6:53 AM 23.0 °F 18.4 °F 14.0 °F 68% 30.36 in 10.0 mi ENE 3.5 mph - N/A   Overcast
7:53 AM 23.0 °F 17.0 °F 15.1 °F 72% 30.40 in 10.0 mi NE 4.6 mph - N/A   Overcast
8:53 AM 24.1 °F 17.0 °F 16.0 °F 71% 30.40 in 10.0 mi NNE 5.8 mph - N/A   Overcast
9:53 AM 25.0 °F 19.3 °F 16.0 °F 69% 30.39 in 10.0 mi NE 4.6 mph - N/A   Overcast
10:53 AM 26.1 °F - 16.0 °F 66% 30.38 in 10.0 mi Calm Calm - N/A   Overcast
11:48 AM 26.6 °F 20.0 °F 15.8 °F 64% 30.33 in 10.0 mi ENE 5.8 mph - N/A   Partly Cloudy
11:53 AM 27.0 °F 18.0 °F 16.0 °F 63% 30.35 in 10.0 mi ENE 9.2 mph - N/A   Partly Cloudy
12:12 PM 28.4 °F 20.4 °F 17.6 °F 64% 30.33 in 10.0 mi NE 8.1 mph - N/A   Mostly Cloudy
12:53 PM 30.9 °F 23.5 °F 18.0 °F 59% 30.33 in 10.0 mi East 8.1 mph - N/A   Mostly Cloudy
1:08 PM 30.2 °F 22.6 °F 17.6 °F 60% 30.31 in 10.0 mi NE 8.1 mph 17.3 mph N/A   Partly Cloudy
1:53 PM 30.9 °F 21.2 °F 19.0 °F 61% 30.27 in 10.0 mi NE 12.7 mph - N/A   Partly Cloudy
2:53 PM 32.0 °F 23.0 °F 19.0 °F 59% 30.26 in 10.0 mi NE 11.5 mph - N/A   Clear
3:53 PM 30.9 °F 22.2 °F 19.0 °F 61% 30.24 in 10.0 mi ENE 10.4 mph - N/A   Clear
4:53 PM 32.0 °F 24.2 °F 19.9 °F 61% 30.25 in 10.0 mi ENE 9.2 mph - N/A   Clear
5:53 PM 30.9 °F 21.2 °F 19.9 °F 64% 30.21 in 10.0 mi NE 12.7 mph - N/A   Clear
6:53 PM 30.9 °F 22.2 °F 19.9 °F 64% 30.23 in 10.0 mi ENE 10.4 mph - N/A   Overcast
7:53 PM 30.9 °F 22.8 °F 21.0 °F 67% 30.23 in 10.0 mi NE 9.2 mph - N/A   Overcast
8:53 PM 30.9 °F 27.5 °F 21.9 °F 69% 30.25 in 10.0 mi East 3.5 mph - 0.00 in   Overcast
9:53 PM 30.0 °F 21.7 °F 23.0 °F 75% 30.20 in 8.0 mi NE 9.2 mph - 0.01 in Snow Light Snow
10:34 PM 30.2 °F 21.9 °F 24.8 °F 80% 30.12 in 8.0 mi East 9.2 mph - 0.00 in Rain Light Freezing Rain
10:53 PM 30.0 °F 20.5 °F 25.0 °F 82% 30.11 in 8.0 mi East 11.5 mph 20.7 mph 0.00 in Rain Light Freezing Rain
11:06 PM 30.2 °F 19.3 °F 24.8 °F 80% 30.09 in 10.0 mi East 15.0 mph 20.7 mph 0.00 in   Overcast
11:26 PM 30.2 °F 20.8 °F 24.8 °F 80% 30.09 in 9.0 mi East 11.5 mph - 0.00 in Rain Light Freezing Rain
11:40 PM 30.2 °F 20.8 °F 24.8 °F 80% 30.09 in 6.0 mi East 11.5 mph 18.4 mph 0.02 in Rain Light Freezing Rain
11:53 PM 30.0 °F 22.4 °F 26.1 °F 85% 30.10 in 6.0 mi East 8.1 mph - 0.05 in Rain Light Freezing Rain